Regional Weather Roundup
Issued by NWS

Home | Current Version | Previous Version | Graphics & Text | Print | Product List | Glossary On
Versions: 1 2 3 4 5 6 7 8 9 10 11 12 13 14 15 16 17 18 19 20 21 22 23 24 25 26 27 28 29 30 31 32 33 34 35 36 37 38 39 40 41 42 43 44 45 46 47 48 49 50
000
ASUS44 KMEG 030800
RWRTN
TENNESSEE HOURLY STATE WEATHER ROUNDUP
NATIONAL WEATHER SERVICE MEMPHIS TN
300 AM CDT TUE MAY 03 2016

TNZ002-004-019-021-049-052-054-088>092-030900-
WEST TENNESSEE

CITY           SKY/WX    TMP DP  RH WIND       PRES   REMARKS
MEMPHIS INTL   CLOUDY    60  52  74 N9        29.97F
NWS MEMPHIS      N/A     59 N/A N/A MISG        N/A
JACKSON        CLOUDY    57  51  80 N7        29.97S
DYERSBURG      CLOUDY    55  52  88 CALM        N/A
UNION CITY     CLOUDY    55  52  88 N6        29.97S
LEXINGTON      CLOUDY    55  55 100 CALM      29.95S
$$

TNZ008-025-027-028-033-062-065-066-030900-
NORTH MIDDLE TENNESSEE

CITY           SKY/WX    TMP DP  RH WIND       PRES   REMARKS
NASHVILLE      MOCLDY    57  51  80 N3        29.95S
CLARKSVILLE    CLOUDY    55  50  83 NW3       29.95F
COOKEVILLE     CLOUDY    57  57 100 NW3       29.91S
CROSSVILLE     LGT RAIN  57  55  93 N5        29.91F
$$

TNZ061-075-076-078-094-096-097-030900-
SOUTH MIDDLE TENNESSEE

CITY           SKY/WX    TMP DP  RH WIND       PRES   REMARKS
TULLAHOMA      CLOUDY    57  55  94 N5        29.93F
WINCHESTER     CLOUDY    59  55  88 NW5       29.92S
MCMINNVILLE    MOCLDY    57  57 100 NW3       29.93R
COLUMBIA       CLOUDY   N/A N/A N/A N5        29.93R
SHELBYVILLE    CLOUDY    59  59 100 N7        29.93F
$$

TNZ017-018-042-046-047-030900-
NORTHEAST TENNESSEE

CITY           SKY/WX    TMP DP  RH WIND       PRES   REMARKS
TRI CITIES     LGT RAIN  59  57  93 CALM      29.89S
$$

TNZ012-013-036-069-073-074-030900-
CENTRAL EAST TENNESSEE

CITY           SKY/WX    TMP DP  RH WIND       PRES   REMARKS
KNOXVILLE      CLOUDY    62  59  90 CALM      29.88S
OAK RIDGE      CLOUDY    61  59  93 CALM      29.90S
GATLINBURG     CLOUDY    61  59  94 W3        29.88S
$$

TNZ083-085-099-030900-
SOUTHEAST TENNESSEE

CITY           SKY/WX    TMP DP  RH WIND       PRES   REMARKS
CHATTANOOGA    CLOUDY    65  62  90 N3        29.89S
$$

SKY/WX REPORTED AS FAIR MEANS FEW OR NO CLOUDS BELOW
12 THOUSAND FEET.




USA.gov is the U.S. government's official web portal to all federal, state and local government web resources and services.